GW0058 Weather Reports


Display with metric or nautical units.
time (UTC)temp
F
wind
direction
speed
MPH
gust
MPH
rain 1hr
in
rain 24hr
in
rain mn
in
humidity
%
barometer
mb
20260903075549 79 184 2.0 9.0 0.00 0.00 0.00 83 1014.7
20260903075051 79 161 3.0 9.0 0.00 0.00 0.00 83 1014.7
20260903074610 79 136 1.0 6.0 0.00 0.00 0.00 82 1014.7
20260903074049 79 169 2.0 6.0 0.00 0.00 0.00 82 1014.7
20260903073550 79 134 2.0 6.0 0.00 0.00 0.00 81 1014.8
20260903073132 79 123 1.0 6.0 0.00 0.00 0.00 81 1014.7
20260903072548 79 172 2.0 6.0 0.00 0.00 0.00 81 1014.8
20260903072050 79 165 2.0 5.0 0.00 0.00 0.00 80 1014.9
20260903071617 79 152 2.0 6.0 0.00 0.00 0.00 80 1014.9
20260903071052 80 183 2.0 6.0 0.00 0.00 0.00 80 1014.8
20260903070549 80 163 2.0 6.0 0.00 0.00 0.00 79 1014.7
20260903070054 80 157 1.0 8.0 0.00 0.00 0.00 79 1014.7
20260903065550 80 136 3.0 8.0 0.00 0.00 0.00 79 1014.7
20260903065050 80 171 2.0 7.0 0.00 0.00 0.00 78 1014.8
20260903064557 80 142 2.0 10.0 0.00 0.00 0.00 78 1014.9
20260903064049 80 173 3.0 10.0 0.00 0.00 0.00 77 1014.9
20260903063549 80 182 3.0 9.0 0.00 0.00 0.00 77 1014.9
20260903063100 81 143 2.0 10.0 0.00 0.00 0.00 76 1014.9
20260903062549 81 194 4.0 10.0 0.00 0.00 0.00 76 1014.9
20260903062051 81 173 4.0 14.0 0.00 0.00 0.00 75 1014.8
20260903061555 81 163 5.0 14.0 0.00 0.00 0.00 75 1015.0
20260903061049 81 168 5.0 11.0 0.00 0.00 0.00 74 1015.0
20260903060549 81 167 3.0 11.0 0.00 0.00 0.00 73 1015.0
20260903060136 82 182 3.0 9.0 0.00 0.00 0.00 72 1015.1
20260903055549 82 178 4.0 10.0 0.00 0.00 0.00 71 1015.1
20260903055046 82 188 3.0 10.0 0.00 0.00 0.00 70 1015.0
20260903054600 82 194 4.0 11.0 0.00 0.00 0.00 69 1015.0
20260903054049 82 187 4.0 11.0 0.00 0.00 0.00 68 1015.0
20260903053551 83 165 4.0 10.0 0.00 0.00 0.00 68 1015.1
20260903053059 83 154 5.0 10.0 0.00 0.00 0.00 67 1015.0
20260903052551 83 153 4.0 9.0 0.00 0.00 0.00 67 1015.0
20260903052053 83 146 3.0 9.0 0.00 0.00 0.00 66 1015.0
20260903051606 83 132 3.0 9.0 0.00 0.00 0.00 65 1014.9
20260903051048 84 165 3.0 8.0 0.00 0.00 0.00 64 1014.7
20260903050546 84 161 3.0 9.0 0.00 0.00 0.00 64 1014.6
20260903045546 84 161 3.0 8.0 0.00 0.00 0.00 64 1014.6
20260903045046 84 157 3.0 8.0 0.00 0.00 0.00 64 1014.4
20260903044602 84 162 2.0 6.0 0.00 0.00 0.00 64 1014.5
20260903044047 84 141 2.0 7.0 0.00 0.00 0.00 64 1014.5
20260903043546 84 140 1.0 8.0 0.00 0.00 0.00 63 1014.5
20260903043054 85 157 1.0 8.0 0.00 0.00 0.00 63 1014.4
20260903042546 85 190 2.0 8.0 0.00 0.00 0.00 63 1014.4
20260903042046 84 115 3.0 10.0 0.00 0.00 0.00 63 1014.5
20260903041602 84 150 2.0 10.0 0.00 0.00 0.00 62 1014.4
20260903041046 84 66 2.0 8.0 0.00 0.00 0.00 62 1014.4
20260903040549 84 92 0.0 4.0 0.00 0.00 0.00 61 1014.2
20260903040104 84 61 1.0 6.0 0.00 0.00 0.00 61 1014.1
20260903035548 84 112 0.0 6.0 0.00 0.00 0.00 61 1014.2
20260903035047 84 0 1.0 6.0 0.00 0.00 0.00 61 1014.2
20260903034601 84 38 1.0 7.0 0.00 0.00 0.00 61 1014.1
20260903034047 84 120 1.0 7.0 0.00 0.00 0.00 61 1014.1
20260903033548 84 126 1.0 5.0 0.00 0.00 0.00 62 1014.1
20260903033054 83 76 0.0 5.0 0.00 0.00 0.00 62 1014.1
20260903032550 83 154 0.0 5.0 0.00 0.00 0.00 63 1014.1
20260903032047 83 0 0.0 1.0 0.00 0.00 0.00 62 1014.0
20260903031551 84 0 0.0 1.0 0.00 0.00 0.00 62 1013.9
20260903031046 84 0 0.0 1.0 0.00 0.00 0.00 62 1013.8
20260903030546 84 0 0.0 1.0 0.00 0.00 0.00 61 1013.7
20260903030100 84 0 0.0 1.0 0.00 0.00 0.00 61 1013.6
20260903025547 84 0 0.0 0.0 0.00 0.00 0.00 60 1013.5
20260903025047 85 0 0.0 0.0 0.00 0.00 0.00 59 1013.5
20260903024558 85 0 0.0 0.0 0.00 0.00 0.00 58 1013.3
20260903024047 85 0 0.0 0.0 0.00 0.00 0.00 58 1013.3
20260903023546 85 0 0.0 0.0 0.00 0.00 0.00 57 1013.2
20260903023108 86 0 0.0 0.0 0.00 0.00 0.00 58 1013.1
20260903022549 86 0 0.0 0.0 0.00 0.00 0.00 58 1013.2
20260903022048 86 0 0.0 0.0 0.00 0.00 0.00 57 1013.2
20260903021600 86 0 0.0 0.0 0.00 0.00 0.00 56 1013.0
20260903021048 86 0 0.0 0.0 0.00 0.00 0.00 55 1013.0
20260903020550 87 0 0.0 0.0 0.00 0.00 0.00 54 1012.8
20260903020103 87 0 0.0 0.0 0.00 0.00 0.00 53 1012.9
20260903015547 87 0 0.0 0.0 0.00 0.00 0.00 52 1012.7
20260903015046 88 0 0.0 0.0 0.00 0.00 0.00 52 1012.7
20260903014604 88 0 0.0 0.0 0.00 0.00 0.00 52 1012.6
20260903014047 89 0 0.0 0.0 0.00 0.00 0.00 51 1012.6
20260903013547 89 0 0.0 0.0 0.00 0.00 0.00 51 1012.6
20260903013108 89 0 0.0 0.0 0.00 0.00 0.00 51 1012.5
20260903012549 89 0 0.0 0.0 0.00 0.00 0.00 50 1012.5
20260903012049 89 0 0.0 0.0 0.00 0.00 0.00 50 1012.5
20260903011600 89 0 0.0 0.0 0.00 0.00 0.00 50 1012.5
20260903011048 89 0 0.0 0.0 0.00 0.00 0.00 49 1012.4
20260903010549 89 0 0.0 0.0 0.00 0.00 0.00 49 1012.5
20260903010107 90 0 0.0 0.0 0.00 0.00 0.00 48 1012.4
20260903005548 90 0 0.0 0.0 0.00 0.00 0.00 47 1012.4
20260903005047 91 0 0.0 0.0 0.00 0.00 0.00 45 1012.5
20260903004604 92 0 0.0 0.0 0.00 0.00 0.00 44 1012.4
20260903004046 93 0 0.0 1.0 0.00 0.00 0.00 43 1012.4
20260903003547 93 0 0.0 2.0 0.00 0.00 0.00 42 1012.5
20260903003105 93 0 0.0 2.0 0.00 0.00 0.00 41 1012.4
20260903002546 94 0 0.0 4.0 0.00 0.00 0.00 41 1012.4
20260903002046 94 140 1.0 5.0 0.00 0.00 0.00 40 1012.5
20260903001614 94 145 0.0 5.0 0.00 0.00 0.00 42 1012.4
20260903001049 95 136 1.0 5.0 0.00 0.00 0.00 41 1012.5
20260903000547 95 137 2.0 6.0 0.00 0.00 0.00 41 1012.5
20260903000100 95 148 2.0 6.0 0.00 0.00 0.00 41 1012.5
20260902235547 95 131 2.0 6.0 0.00 0.00 0.00 41 1012.5
20260902235047 95 0 1.0 6.0 0.00 0.00 0.00 41 1012.5
20260902234613 95 137 0.0 4.0 0.00 0.00 0.00 41 1012.5
20260902234048 96 128 1.0 4.0 0.00 0.00 0.00 41 1012.5
20260902233546 95 93 1.0 4.0 0.00 0.00 0.00 42 1012.5
20260902233054 95 111 1.0 4.0 0.00 0.00 0.00 42 1012.5
20260902232549 95 0 1.0 4.0 0.00 0.00 0.00 41 1012.6
20260902232046 96 0 0.0 5.0 0.00 0.00 0.00 41 1012.6
20260902231614 96 0 1.0 5.0 0.00 0.00 0.00 41 1012.5
20260902231047 96 170 1.0 4.0 0.00 0.00 0.00 40 1012.6
20260902230546 96 136 1.0 4.0 0.00 0.00 0.00 40 1012.5
20260902230112 96 159 1.0 4.0 0.00 0.00 0.00 42 1012.5
20260902225548 96 136 1.0 3.0 0.00 0.00 0.00 42 1012.5
20260902225048 96 121 0.0 4.0 0.00 0.00 0.00 42 1012.5
20260902224554 97 152 1.0 4.0 0.00 0.00 0.00 41 1012.5
20260902224046 96 168 0.0 4.0 0.00 0.00 0.00 42 1012.5
20260902223548 96 121 1.0 4.0 0.00 0.00 0.00 42 1012.5
20260902223101 96 0 0.0 2.0 0.00 0.00 0.00 43 1012.5
20260902222547 95 0 0.0 3.0 0.00 0.00 0.00 44 1012.5
20260902222046 95 0 0.0 3.0 0.00 0.00 0.00 46 1012.5
20260902221558 94 0 0.0 3.0 0.00 0.00 0.00 46 1012.6
20260902221047 94 0 0.0 3.0 0.00 0.00 0.00 46 1012.7
20260902220552 94 122 1.0 4.0 0.00 0.00 0.00 46 1012.7
20260902220107 94 31 0.0 4.0 0.00 0.00 0.00 46 1012.8
20260902215546 94 322 1.0 4.0 0.00 0.00 0.00 46 1012.9
20260902215046 94 48 0.0 4.0 0.00 0.00 0.00 46 1012.9
20260902214614 94 331 0.0 4.0 0.00 0.00 0.00 45 1012.9
20260902214046 94 37 1.0 6.0 0.00 0.00 0.00 44 1012.8
20260902213551 94 61 1.0 6.0 0.00 0.00 0.00 44 1012.9
20260902213058 95 125 1.0 6.0 0.00 0.00 0.00 44 1013.0
20260902212547 95 121 0.0 3.0 0.00 0.00 0.00 44 1012.9
20260902212047 94 125 1.0 6.0 0.00 0.00 0.00 47 1013.0
20260902211555 94 350 1.0 6.0 0.00 0.00 0.00 47 1013.0
20260902211046 95 92 2.0 6.0 0.00 0.00 0.00 45 1013.0
20260902210549 96 355 1.0 6.0 0.00 0.00 0.00 43 1013.1
20260902210100 97 0 1.0 6.0 0.00 0.00 0.00 40 1013.1
20260902205546 97 290 0.0 4.0 0.00 0.00 0.00 37 1013.0
20260902205050 97 70 1.0 7.0 0.00 0.00 0.00 38 1013.1
20260902204604 96 71 1.0 7.0 0.00 0.00 0.00 39 1013.1
20260902204047 96 148 2.0 6.0 0.00 0.00 0.00 39 1013.1
20260902203547 97 145 1.0 5.0 0.00 0.00 0.00 38 1013.2
20260902203104 97 132 1.0 5.0 0.00 0.00 0.00 38 1013.3
20260902202547 97 0 1.0 4.0 0.00 0.00 0.00 39 1013.4
20260902202051 96 0 0.0 6.0 0.00 0.00 0.00 40 1013.4
20260902201554 96 158 1.0 6.0 0.00 0.00 0.00 39 1013.4
20260902201046 95 184 2.0 6.0 0.00 0.00 0.00 41 1013.4
20260902200551 95 179 1.0 4.0 0.00 0.00 0.00 42 1013.7
20260902200056 95 79 0.0 4.0 0.00 0.00 0.00 42 1013.8
20260902195553 95 0 0.0 11.0 0.00 0.00 0.00 41 1013.9
20260902195051 95 129 4.0 11.0 0.00 0.00 0.00 41 1014.1
20260902194554 96 142 3.0 9.0 0.00 0.00 0.00 39 1014.1
20260902194050 97 252 2.0 9.0 0.00 0.00 0.00 39 1014.3
20260902193550 99 169 5.0 9.0 0.00 0.00 0.00 37 1014.3
20260902193055 99 183 2.0 6.0 0.00 0.00 0.00 37 1014.5
20260902192550 97 85 2.0 7.0 0.00 0.00 0.00 39 1014.4
20260902192051 98 191 2.0 7.0 0.00 0.00 0.00 39 1014.6
20260902191604 98 177 2.0 9.0 0.00 0.00 0.00 39 1014.6
20260902191049 98 210 4.0 10.0 0.00 0.00 0.00 39 1014.7
20260902190547 96 204 2.0 10.0 0.00 0.00 0.00 41 1014.8
20260902185547 96 261 1.0 8.0 0.00 0.00 0.00 40 1015.0
20260902185052 98 315 2.0 9.0 0.00 0.00 0.00 39 1015.1
20260902184640 98 209 5.0 11.0 0.00 0.00 0.00 40 1015.3
20260902184046 97 196 3.0 11.0 0.00 0.00 0.00 41 1015.3
20260902183548 97 67 5.0 11.0 0.00 0.00 0.00 40 1015.3
20260902183054 97 261 2.0 8.0 0.00 0.00 0.00 42 1015.5
20260902182546 97 228 2.0 8.0 0.00 0.00 0.00 40 1015.6
20260902182046 97 177 4.0 9.0 0.00 0.00 0.00 41 1015.6
20260902181557 96 190 3.0 11.0 0.00 0.00 0.00 43 1015.7
20260902181046 96 194 4.0 11.0 0.00 0.00 0.00 42 1015.8
20260902180546 96 145 2.0 7.0 0.00 0.00 0.00 44 1015.9
20260902180108 95 68 2.0 7.0 0.00 0.00 0.00 43 1016.0
20260902175546 95 202 3.0 7.0 0.00 0.00 0.00 44 1016.2
20260902175050 95 94 2.0 7.0 0.00 0.00 0.00 44 1016.2
20260902174604 96 148 4.0 8.0 0.00 0.00 0.00 44 1016.3
20260902174049 94 98 2.0 8.0 0.00 0.00 0.00 44 1016.4
20260902173547 95 190 2.0 9.0 0.00 0.00 0.00 44 1016.5
20260902173058 95 183 3.0 9.0 0.00 0.00 0.00 44 1016.6
20260902172605 95 184 4.0 8.0 0.00 0.00 0.00 45 1016.6
20260902172047 95 232 4.0 11.0 0.00 0.00 0.00 45 1016.6
20260902171603 94 123 4.0 11.0 0.00 0.00 0.00 45 1016.6
20260902171049 94 152 5.0 11.0 0.00 0.00 0.00 46 1016.6
20260902170549 94 177 4.0 10.0 0.00 0.00 0.00 47 1016.7
20260902165547 93 152 3.0 10.0 0.00 0.00 0.00 49 1016.8
20260902165047 92 191 3.0 11.0 0.00 0.00 0.00 49 1017.0
20260902164601 92 242 3.0 11.0 0.00 0.00 0.00 49 1017.0
20260902164047 92 174 4.0 11.0 0.00 0.00 0.00 49 1017.1
20260902163547 92 157 3.0 8.0 0.00 0.00 0.00 48 1017.0
20260902163055 92 243 4.0 8.0 0.00 0.00 0.00 50 1017.1
20260902162551 91 190 3.0 8.0 0.00 0.00 0.00 50 1017.1
20260902162053 92 247 2.0 9.0 0.00 0.00 0.00 50 1017.1
20260902161614 91 229 4.0 9.0 0.00 0.00 0.00 53 1017.1
20260902161050 90 180 1.0 7.0 0.00 0.00 0.00 55 1017.2
20260902160549 90 213 4.0 7.0 0.00 0.00 0.00 55 1017.3
20260902160057 90 215 2.0 8.0 0.00 0.00 0.00 54 1017.4
20260902155550 90 193 3.0 9.0 0.00 0.00 0.00 57 1017.3
20260902155051 90 157 4.0 9.0 0.00 0.00 0.00 56 1017.2
20260902154605 90 213 3.0 10.0 0.00 0.00 0.00 55 1017.2
20260902154049 89 236 3.0 10.0 0.00 0.00 0.00 55 1017.1
20260902153546 89 244 3.0 7.0 0.00 0.00 0.00 56 1017.2
20260902153112 88 144 3.0 7.0 0.00 0.00 0.00 57 1017.1
20260902152549 88 208 2.0 7.0 0.00 0.00 0.00 59 1017.0
20260902152049 87 170 3.0 8.0 0.00 0.00 0.00 61 1017.0
20260902151600 88 246 3.0 9.0 0.00 0.00 0.00 60 1017.1
20260902151047 87 167 3.0 9.0 0.00 0.00 0.00 60 1017.1
20260902150546 86 184 3.0 7.0 0.00 0.00 0.00 64 1017.1
20260902150105 86 225 4.0 8.0 0.00 0.00 0.00 66 1017.1
20260902145550 85 136 4.0 8.0 0.00 0.00 0.00 66 1017.0
20260902145047 85 204 3.0 8.0 0.00 0.00 0.00 69 1017.1
20260902144622 85 204 3.0 10.0 0.00 0.00 0.00 72 1017.1
20260902144047 84 220 3.0 10.0 0.00 0.00 0.00 73 1017.1
20260902143550 84 248 2.0 8.0 0.00 0.00 0.00 74 1017.1
20260902143108 83 255 3.0 8.0 0.00 0.00 0.00 76 1017.2
20260902142550 81 243 3.0 8.0 0.00 0.00 0.00 78 1017.1
20260902142050 81 208 4.0 8.0 0.00 0.00 0.00 80 1017.2
20260902141557 80 273 3.0 8.0 0.00 0.00 0.00 81 1017.3
20260902141049 80 222 3.0 8.0 0.00 0.00 0.00 82 1017.2
20260902140547 79 248 3.0 11.0 0.00 0.00 0.00 82 1017.3
20260902135546 78 172 3.0 11.0 0.00 0.00 0.00 84 1017.1
20260902135047 78 202 3.0 9.0 0.00 0.00 0.00 85 1017.1
20260902134556 77 213 3.0 8.0 0.00 0.00 0.00 86 1017.1
20260902134046 77 223 2.0 8.0 0.00 0.00 0.00 86 1017.1
20260902133547 76 216 2.0 7.0 0.00 0.00 0.00 87 1017.1
20260902133103 75 219 2.0 7.0 0.00 0.00 0.00 87 1017.1
20260902132546 75 246 2.0 7.0 0.00 0.00 0.00 87 1017.1
20260902132046 74 198 1.0 7.0 0.00 0.00 0.00 87 1017.1
20260902131603 74 200 2.0 5.0 0.00 0.00 0.00 87 1017.1
20260902131046 74 216 2.0 4.0 0.00 0.00 0.00 86 1017.0
20260902130550 73 0 0.0 2.0 0.00 0.00 0.00 86 1016.9
20260902130117 73 0 0.0 0.0 0.00 0.00 0.00 85 1017.0
20260902125546 73 0 0.0 0.0 0.00 0.00 0.00 85 1016.8
20260902125050 73 0 0.0 0.0 0.00 0.00 0.00 85 1016.8
20260902124602 73 0 0.0 0.0 0.00 0.00 0.00 85 1016.8
20260902124050 73 0 0.0 0.0 0.00 0.00 0.00 85 1016.6
20260902123547 73 0 0.0 1.0 0.00 0.00 0.00 84 1016.6
20260902123105 73 0 0.0 1.0 0.00 0.00 0.00 84 1016.5
20260902122550 73 0 0.0 1.0 0.00 0.00 0.00 84 1016.5
20260902122046 73 0 0.0 1.0 0.00 0.00 0.00 84 1016.4
20260902121614 73 0 0.0 1.0 0.00 0.00 0.00 84 1016.5
20260902121046 74 0 0.0 1.0 0.00 0.00 0.00 84 1016.4
20260902120548 74 0 0.0 1.0 0.00 0.00 0.00 84 1016.3
20260902120109 74 0 0.0 1.0 0.00 0.00 0.00 83 1016.3
20260902115550 74 0 0.0 1.0 0.00 0.00 0.00 83 1016.3
20260902115047 74 0 0.0 1.0 0.00 0.00 0.00 83 1016.3
20260902114620 74 0 0.0 0.0 0.00 0.00 0.00 83 1016.3
20260902114046 74 0 0.0 0.0 0.00 0.00 0.00 83 1016.3
20260902113547 74 0 0.0 1.0 0.00 0.00 0.00 83 1016.3
20260902113102 74 0 0.0 1.0 0.00 0.00 0.00 83 1016.3
20260902112546 74 0 0.0 2.0 0.00 0.00 0.00 83 1016.3
20260902112047 74 0 0.0 3.0 0.00 0.00 0.00 83 1016.1
20260902111605 74 224 1.0 3.0 0.00 0.00 0.00 83 1016.1
20260902111050 74 241 1.0 3.0 0.00 0.00 0.00 83 1016.2
20260902110546 74 0 0.0 2.0 0.00 0.00 0.00 83 1016.1
20260902110059 74 0 0.0 2.0 0.00 0.00 0.00 83 1016.0
20260902105546 74 0 0.0 0.0 0.00 0.00 0.00 83 1016.0
20260902105047 74 0 0.0 0.0 0.00 0.00 0.00 83 1016.1
20260902104604 74 0 0.0 2.0 0.00 0.00 0.00 82 1016.0
20260902104050 74 0 0.0 2.0 0.00 0.00 0.00 82 1016.1
20260902103549 75 240 0.0 1.0 0.00 0.00 0.00 82 1016.1
20260902103119 75 0 0.0 2.0 0.00 0.00 0.00 82 1016.0
20260902102550 75 0 0.0 3.0 0.00 0.00 0.00 83 1016.0
20260902102047 75 216 0.0 4.0 0.00 0.00 0.00 83 1016.1
20260902101556 75 234 0.0 4.0 0.00 0.00 0.00 83 1016.1
20260902101046 75 239 0.0 4.0 0.00 0.00 0.00 83 1016.0
20260902100550 75 249 1.0 4.0 0.00 0.00 0.00 83 1016.0
20260902100053 75 244 1.0 4.0 0.00 0.00 0.00 83 1015.9
20260902095547 75 190 1.0 3.0 0.00 0.00 0.00 83 1015.9
20260902095048 75 210 1.0 2.0 0.00 0.00 0.00 83 1016.0
20260902094602 75 0 0.0 1.0 0.00 0.00 0.00 83 1016.1
20260902094050 75 0 0.0 1.0 0.00 0.00 0.00 83 1016.2
20260902093547 75 259 0.0 1.0 0.00 0.00 0.00 82 1016.2
20260902093109 75 0 0.0 1.0 0.00 0.00 0.00 82 1016.2
20260902092547 75 0 0.0 1.0 0.00 0.00 0.00 82 1016.2
20260902092050 75 0 0.0 1.0 0.00 0.00 0.00 82 1016.2
20260902091602 75 0 0.0 1.0 0.00 0.00 0.00 82 1016.3
20260902091047 75 0 0.0 1.0 0.00 0.00 0.00 82 1016.4
20260902090553 75 0 0.0 0.0 0.00 0.00 0.00 81 1016.4
20260902085547 75 0 0.0 0.0 0.00 0.00 0.00 81 1016.4
20260902085047 75 0 0.0 0.0 0.00 0.00 0.00 81 1016.3
20260902084554 75 0 0.0 1.0 0.00 0.00 0.00 81 1016.3
20260902084047 76 0 0.0 1.0 0.00 0.00 0.00 81 1016.3
20260902083546 76 0 0.0 1.0 0.00 0.00 0.00 81 1016.4
20260902083059 76 0 0.0 1.0 0.00 0.00 0.00 80 1016.4
20260902082547 76 0 0.0 1.0 0.00 0.00 0.00 80 1016.4
20260902082047 76 148 0.0 1.0 0.00 0.00 0.00 80 1016.4
20260902081555 76 0 0.0 0.0 0.00 0.00 0.00 79 1016.5
20260902081049 76 0 0.0 0.0 0.00 0.00 0.00 79 1016.6
20260902080547 76 0 0.0 0.0 0.00 0.00 0.00 79 1016.6
20260902080105 76 0 0.0 0.0 0.00 0.00 0.00 79 1016.7